Simultaneous Nadir Overpasses (SNOs) Predictions

Prediction of SNOs between LANDSAT-8 and NPP Satellite Orbit:

Table of predicted SNOs for the next 14.0 days since TLE Epoch: 11/11/2017
Index Date (LANDSAT-8) Time (LANDSAT-8) Lat,Lon (LANDSAT-8) SZA (LANDSAT-8 ) Date (NPP) Time (NPP) Lat,Lon (NPP) SZA (NPP ) Distance(km) Time Diff (sec)
1 11/11/2017 14:42:10 70.13, -44.01 87.60 11/11/2017 14:41:25 70.12, -44.00 87.59 0.78 45
2 11/11/2017 15:31:40 -70.01, 123.46 92.51 11/11/2017 15:32:07 -70.04, 123.45 92.49 3.06 27
3 11/14/2017 06:08:58 -70.95, -94.54 90.87 11/14/2017 06:07:51 -71.04, -97.02 90.78 90.21 67
4 11/14/2017 06:58:39 70.09, 71.81 88.27 11/14/2017 06:58:19 70.09, 71.82 88.27 0.36 20
5 11/14/2017 07:48:09 -69.98,-120.71 91.84 11/14/2017 07:49:01 -70.00,-120.72 91.81 2.92 52
6 11/16/2017 22:25:40 -70.15, 20.14 91.01 11/16/2017 22:24:28 -70.17, 20.16 90.98 2.57 72
7 11/16/2017 23:15:07 70.04,-172.37 88.90 11/16/2017 23:15:12 70.06,-172.36 88.92 1.99 5
8 11/17/2017 00:04:39 -69.82, -5.04 91.32 11/17/2017 00:05:51 -69.81, -4.67 91.33 14.38 72
9 11/19/2017 14:42:08 -70.16, 136.03 90.37 11/19/2017 14:41:22 -70.14, 135.97 90.38 2.74 46
10 11/19/2017 15:31:35 70.05, -56.48 89.53 11/19/2017 15:32:06 70.03, -56.55 89.53 3.05 31
11 11/22/2017 06:08:55 70.86, 85.33 90.93 11/22/2017 06:07:47 70.90, 83.22 90.98 77.16 68
12 11/22/2017 06:58:37 -70.10,-108.16 89.83 11/22/2017 06:58:16 -70.11,-108.21 89.82 2.37 21
13 11/22/2017 07:48:04 69.99, 59.32 90.07 11/22/2017 07:48:59 69.96, 59.33 90.04 3.32 55
14 11/24/2017 22:25:36 70.14,-159.86 90.76 11/24/2017 22:24:27 70.14,-159.80 90.76 1.95 69
15 11/24/2017 23:15:06 -70.04, 7.63 89.34 11/24/2017 23:15:09 -70.04, 7.67 89.35 1.53 3
16 11/25/2017 00:04:37 69.70, 174.81 90.33 11/25/2017 00:05:48 69.67, 175.53 90.30 27.87 71




NCC Satellite Simultaneous Nadir Overpasses (SNOs) Prediction Service
